カタログに戻る

STARLINK-35421

運用中通信VLEO
NORAD 66062·PAYLOAD·🇺🇸 United States

打ち上げ Oct 19, 2025 から Cape Canaveral Space Force Station

Loading…

次のパス (今後24時間)

TLE

最新Source: CelesTrak SupGP

元期: Sep 15, 2026, 02:51 UTC

1 66062C 25235E   26258.11923611 -.00020344  00000+0 -60106-3 0  2582
2 66062  53.1581  82.6287 0001057  78.7535 255.5902 15.34401290    14

AllMySatでSTARLINK-35421をリアルタイム追跡

Download on the App Store